Location: Bothwell
(42.3833°S, 147.0000°E)
Time: 21:59:24
(UTC+11:00)

CUTE-I - Pass Details

Date: 27 September 2022
Orbit: 810 x 823 km, 98.7° (Epoch: 30 November)

Event Time Altitude Azimuth Distance (km) Brightness Sun altitude
Rises 19:43:26 0° 178° (S) 3,391 ? -17.0°
Reaches altitude 10° 19:46:08 10° 190° (S) 2,453 ? -17.5°
Maximum altitude 19:50:32 26° 244° (WSW) 1,595 ? -18.3°
Drops below altitude 10° 19:54:54 10° 298° (WNW) 2,435 ? -19.0°
Sets 19:57:35 0° 310° (NW) 3,360 ? -19.5°
